TimeBST,TemperatureF,Dew PointF,Humidity,Sea Level PressureIn,VisibilityMPH,Wind Direction,Wind SpeedMPH,Gust SpeedMPH,PrecipitationIn,Events,Conditions,WindDirDegrees,DateUTC
12:20 AM,57.2,53.6,88,30.06,6.2,Variable,3.5,-,N/A,,Scattered Clouds,0,2013-10-05 23:20:00
12:50 AM,57.2,53.6,88,30.06,6.2,Variable,2.3,-,N/A,,Mostly Cloudy,0,2013-10-05 23:50:00
1:20 AM,59.0,53.6,82,30.06,6.2,WSW,10.4,-,N/A,,Mostly Cloudy,240,2013-10-06 00:20:00
1:50 AM,60.8,53.6,77,30.04,6.2,SW,19.6,-,N/A,,Mostly Cloudy,230,2013-10-06 00:50:00
2:20 AM,60.8,53.6,77,30.04,6.2,SW,18.4,-,N/A,,Overcast,220,2013-10-06 01:20:00
2:50 AM,59.0,53.6,82,30.04,6.2,SSW,19.6,-,N/A,Rain,Light Rain,210,2013-10-06 01:50:00
3:20 AM,57.2,53.6,88,30.04,-9999.0,SW,19.6,-,N/A,Rain,Light Rain,220,2013-10-06 02:20:00
3:50 AM,57.2,53.6,88,30.04,-9999.0,SSW,19.6,-,N/A,Rain,Rain,210,2013-10-06 02:50:00
4:20 AM,57.2,55.4,94,30.04,-9999.0,SW,18.4,-,N/A,Rain,Light Rain,220,2013-10-06 03:20:00
4:50 AM,57.2,55.4,94,30.04,3.7,SSW,19.6,-,N/A,Rain,Light Rain,210,2013-10-06 03:50:00
5:20 AM,55.4,55.4,100,30.04,-9999.0,SW,18.4,-,N/A,Rain,Rain,220,2013-10-06 04:20:00
5:50 AM,55.4,55.4,100,30.04,3.7,SW,17.3,-,N/A,Rain,Light Rain,220,2013-10-06 04:50:00
6:20 AM,57.2,55.4,94,30.04,6.2,SW,17.3,-,N/A,,Overcast,220,2013-10-06 05:20:00
6:50 AM,57.2,55.4,94,30.04,6.2,SW,19.6,-,N/A,,Mostly Cloudy,220,2013-10-06 05:50:00
7:20 AM,57.2,55.4,94,30.06,6.2,SW,19.6,-,N/A,,Mostly Cloudy,220,2013-10-06 06:20:00
7:50 AM,57.2,55.4,94,30.06,6.2,SSW,17.3,-,N/A,,Mostly Cloudy,210,2013-10-06 06:50:00
8:20 AM,57.2,55.4,94,30.06,6.2,SW,13.8,-,N/A,,Mostly Cloudy,230,2013-10-06 07:20:00
8:50 AM,57.2,55.4,94,30.06,6.2,SW,18.4,-,N/A,,Mostly Cloudy,220,2013-10-06 07:50:00
9:20 AM,57.2,55.4,94,30.06,6.2,SSW,15.0,-,N/A,,Mostly Cloudy,210,2013-10-06 08:20:00
9:50 AM,59.0,55.4,88,30.06,6.2,SW,15.0,-,N/A,,Mostly Cloudy,230,2013-10-06 08:50:00
10:20 AM,59.0,55.4,88,30.06,6.2,SW,12.7,-,N/A,,Mostly Cloudy,220,2013-10-06 09:20:00
10:50 AM,59.0,57.2,94,30.09,6.2,SW,15.0,-,N/A,,Mostly Cloudy,230,2013-10-06 09:50:00
11:20 AM,60.8,57.2,88,30.09,6.2,SW,15.0,-,N/A,,Mostly Cloudy,220,2013-10-06 10:20:00
11:50 AM,60.8,57.2,88,30.06,6.2,SW,13.8,-,N/A,,Overcast,220,2013-10-06 10:50:00
12:20 PM,59.0,57.2,94,30.06,6.2,SW,13.8,-,N/A,,Overcast,220,2013-10-06 11:20:00
12:50 PM,59.0,57.2,94,30.09,-9999.0,SW,12.7,-,N/A,Rain,Light Rain,220,2013-10-06 11:50:00
1:20 PM,59.0,57.2,94,30.06,6.2,SW,13.8,-,N/A,,Overcast,220,2013-10-06 12:20:00
1:50 PM,59.0,59.0,100,30.06,6.2,SW,12.7,-,N/A,,Overcast,220,2013-10-06 12:50:00
2:20 PM,60.8,59.0,94,30.06,6.2,SW,15.0,-,N/A,,Overcast,220,2013-10-06 13:20:00
2:50 PM,60.8,59.0,94,30.06,6.2,SW,13.8,-,N/A,,Mostly Cloudy,230,2013-10-06 13:50:00
3:20 PM,62.6,59.0,88,30.06,6.2,SW,13.8,-,N/A,,Mostly Cloudy,230,2013-10-06 14:20:00
3:50 PM,62.6,59.0,88,30.06,6.2,SW,13.8,-,N/A,,Scattered Clouds,230,2013-10-06 14:50:00
4:20 PM,62.6,59.0,88,30.06,6.2,WSW,12.7,-,N/A,,Scattered Clouds,240,2013-10-06 15:20:00
4:50 PM,60.8,59.0,94,30.06,6.2,WSW,11.5,-,N/A,,Scattered Clouds,240,2013-10-06 15:50:00
5:20 PM,60.8,57.2,88,30.06,6.2,WSW,9.2,-,N/A,,Scattered Clouds,240,2013-10-06 16:20:00
5:50 PM,60.8,59.0,94,30.06,6.2,West,6.9,-,N/A,,Scattered Clouds,260,2013-10-06 16:50:00
6:20 PM,60.8,57.2,88,30.04,6.2,West,4.6,-,N/A,,Scattered Clouds,260,2013-10-06 17:20:00
6:50 PM,60.8,57.2,88,30.06,6.2,WSW,4.6,-,N/A,,Scattered Clouds,250,2013-10-06 17:50:00
7:20 PM,59.0,57.2,94,30.06,6.2,WSW,4.6,-,N/A,,Scattered Clouds,250,2013-10-06 18:20:00
7:50 PM,59.0,57.2,94,30.06,6.2,WNW,3.5,-,N/A,,Mostly Cloudy,290,2013-10-06 18:50:00
8:20 PM,60.8,59.0,94,30.06,6.2,South,4.6,-,N/A,,Overcast,190,2013-10-06 19:20:00
8:50 PM,60.8,59.0,94,30.06,6.2,SW,6.9,-,N/A,,Mostly Cloudy,220,2013-10-06 19:50:00
9:20 PM,60.8,59.0,94,30.06,6.2,SSW,9.2,-,N/A,,Overcast,200,2013-10-06 20:20:00
9:50 PM,60.8,59.0,94,30.06,6.2,SSW,9.2,-,N/A,,Overcast,210,2013-10-06 20:50:00
10:20 PM,60.8,59.0,94,30.06,6.2,SW,10.4,-,N/A,,Overcast,220,2013-10-06 21:20:00
10:50 PM,60.8,59.0,94,30.06,6.2,SW,11.5,-,N/A,,Overcast,220,2013-10-06 21:50:00
11:20 PM,60.8,59.0,94,30.06,6.2,SW,9.2,-,N/A,,Overcast,220,2013-10-06 22:20:00
11:50 PM,60.8,59.0,94,30.06,6.2,SW,12.7,-,N/A,,Overcast,220,2013-10-06 22:50:00